Location: ??????
(42.0089°N, 44.3281°E)
Time: 16:13:20
(UTC+00:00)

Tiangong - Visible Passes

Search period start: 22 January 2022 00:00
Search period end: 01 February 2022 00:00
Orbit: 383 x 386 km, 41.5° (Epoch: 22 January)

Date Brightness Start Highest point End Pass type
(mag) Time Alt. Az. Time Alt. Az. Time Alt. Az.
26 Jan 3.6 16:16:02 10° SW 16:17:02 17° SSW 16:17:02 17° SSW visible
27 Jan 3.1 15:16:59 10° SSW 15:19:11 17° SSE 15:20:18 15° SE visible
27 Jan 4.6 16:52:31 10° WSW 16:52:31 10° WSW 16:52:31 10° WSW visible
28 Jan 1.9 15:52:53 10° SW 15:55:42 40° S 15:55:42 40° S visible
29 Jan 2.5 14:53:25 10° SW 14:56:10 27° SSE 14:58:49 11° E visible
29 Jan 3.4 16:29:37 10° WSW 16:31:02 24° WSW 16:31:02 24° WSW visible
30 Jan 1.3 15:29:49 10° WSW 15:32:56 58° SSE 15:34:05 33° ESE visible
31 Jan 1.6 16:06:38 10° W 16:09:18 59° WSW 16:09:18 59° WSW visible
